Regional Weather Roundup
Issued by NWS

Home | Current Version | Previous Version | Graphics & Text | Print | Product List | Glossary Off
Versions: 1 2 3 4 5 6 7 8 9 10 11 12 13 14 15 16 17 18 19 20 21 22 23 24 25 26 27 28 29 30 31 32 33 34 35 36 37 38 39 40 41 42 43 44 45 46 47 48 49 50

000
ASUS43 KDTX 212301
RWRMI
MICHIGAN HOURLY REGIONAL WEATHER ROUNDUP
NATIONAL WEATHER SERVICE DETROIT/PONTIAC MI
700 PM EDT FRI JUL 21 2017

NOTE: "FAIR" INDICATES FEW OR NO CLOUDS BELOW 12,000 FEET WITH NO
SIGNIFICANT WEATHER AND/OR OBSTRUCTION TO VISIBILITY.

MIZ047>049-052>055-059>063-066>070-074>076-081>083-220000-
SOUTHEAST LOWER MICHIGAN

CITY           SKY/WX    TMP DP  RH WIND       PRES   REMARKS
ADRIAN         MOSUNNY   85  68  56 SW6       29.96F
ALMA           MOSUNNY   82  68  61 S6        29.95S
ANN ARBOR      PTSUNNY   84  70  62 S5        29.95S
BAD AXE        MOSUNNY   80  66  62 SE3       29.96S
CARO           SUNNY     84  65  52 SW6       29.95S
DETROIT CITY   CLOUDY    84  63  49 E7        29.94F
DETROIT        CLOUDY    84  70  62 S10       29.95F
FLINT          MOSUNNY   83  65  54 W5        29.96S
GROSSE ILE     MOSUNNY   81  72  74 S7        29.94F
HILLSDALE      MOSUNNY   82  64  54 CALM      29.96F
HOWELL         CLOUDY    81  68  64 CALM      29.96F

CITY           SKY/WX    TMP DP  RH WIND       PRES   REMARKS
JACKSON        MOSUNNY   85  65  51 W5        29.95F
LAMBERTVILLE   MOSUNNY   84  68  57 E3        29.94F
LANSING        MOSUNNY   83  68  60 NW6       29.96F
LAPEER         FAIR      85  64  49 SW3       29.97S
MASON          CLOUDY    83  67  57 CALM      29.96F
MONROE         MOSUNNY   83  70  65 S5        29.93F
MT. CLEMENS    PTSUNNY   82  65  54 SE5       29.94F
PONTIAC        CLOUDY    84  63  49 W6        29.96S
PORT HOPE        N/A     77  59  53 SE9       29.94F
PORT HURON     PTSUNNY   84  68  58 CALM      29.95S
TRI CITIES     MOSUNNY   85  69  58 S8        29.94S
MIDLAND        FAIR      86  68  53 CALM      29.92F
TROY           CLOUDY    86  60  40 E3        29.97F
SAGINAW HB     MOSUNNY   82  64  54 SW6       29.94S
$$
MIZ043>046-050>051-056>058-064>065-071>073-077>080-220000-
SOUTHWEST LOWER MICHIGAN

CITY           SKY/WX    TMP DP  RH WIND       PRES   REMARKS
BATTLE CREEK   CLOUDY    83  68  60 W7        29.97F
BENTON HARBOR  CLOUDY    79  70  74 VRB3      29.96R
BIG RAPIDS     CLOUDY    81  60  48 NW7       29.96S
COLDWATER      SUNNY     83  69  62 CALM      29.96F
FREMONT        FAIR      78  66  67 W6G23     29.98S
HOLLAND        CLOUDY    77  68  73 NW7       29.99R
GRAND RAPIDS   CLOUDY    83  67  58 W7        29.96S
IONIA          FAIR      83  67  57 SW5       29.95F
KALAMAZOO      CLOUDY    84  66  54 SW5       29.96F
LUDINGTON      CLOUDY    74  69  85 S3        29.95F
MARSHALL       CLOUDY    84  68  57 CALM      29.95F
MOUNT PLEASANT MOSUNNY   86  64  48 CALM      29.93F
MUSKEGON       LGT RAIN  77  70  79 NW3       29.97F
SOUTH HAVEN    LGT RAIN  79  72  78 NW7       29.97R
$$
MIZ016>042-220000-
NORTHERN LOWER MICHIGAN

CITY           SKY/WX    TMP DP  RH WIND       PRES   REMARKS
ALPENA         CLOUDY    76  63  64 SE7       29.95S
BEAVER ISLAND  CLOUDY    78  61  55 CALM      29.94S
BELLAIRE       PTSUNNY   79  63  58 CALM      29.95R
CADILLAC       MOSUNNY   81  63  53 W6        29.98S
CHARLEVOIX     MOSUNNY   78  58  48 CALM      29.97S
FRANKFORT      CLOUDY    75  68  80 S5        29.95S
GAYLORD        PTSUNNY   81  57  43 NW5       29.97S
GRAYLING       CLOUDY    80  62  55 NW3       29.98R
HARBOR SPRINGS MOSUNNY   75  62  62 CALM      29.94S
HOUGHTON LAKE  CLOUDY    80  62  54 CALM      29.97S
MANISTEE       CLOUDY    75  68  78 CALM      29.95F
OSCODA         CLOUDY    75  65  70 S10       29.93S
PELLSTON       MOSUNNY   80  62  54 W5        29.94F
ROGERS CITY    CLOUDY    76  62  60 NW5       29.94F
TRAVERSE CITY  CLOUDY    82  62  50 CALM      29.93R
$$
MIZ007>008-015-220000-
EASTERN UPPER MICHIGAN

CITY           SKY/WX    TMP DP  RH WIND       PRES   REMARKS
KINROSS        CLOUDY    71  53  52 N6        29.95R
MACKINAC ISLAN PTSUNNY   74  65  73 NW5       29.94S
NEWBERRY       CLOUDY    73  58  60 CALM      29.95R
S. S. MARIE    CLOUDY    76  51  41 NW9       29.93F
MUNISING         N/A     69  63  81 N3        29.93S
$$
MIZ004>006-011>014-085-220000-
CENTRAL UPPER MICHIGAN

CITY           SKY/WX    TMP DP  RH WIND       PRES   REMARKS
MANISTIQUE     CLOUDY    73  69  89 S5        29.93S
ESCANABA       CLOUDY    75  69  81 SE7       29.91S
MENOMINEE      PTSUNNY   81  68  64 SW5       29.91F
SAWYER-GWINN   SUNNY     72  61  68 NE8       29.95F
$$
MIZ001>003-009>011-084-220000-
WESTERN UPPER MICHIGAN

CITY           SKY/WX    TMP DP  RH WIND       PRES   REMARKS
IRON MOUNTAIN  PTSUNNY   83  64  52 SE7       29.90F
HOUGHTON       SUNNY     72  56  57 SE8       29.91F
COPPER HARBOR    N/A     67  54  63 CALM      29.90F
IRONWOOD       SUNNY     83  65  54 SE6       29.86F
$$

ABBREVIATIONS USED IN REMARKS
   TC - TEMPERATURE IN CELSIUS
  WCI - WIND CHILL INDEX
   HX - HEAT INDEX
  VSB - VISIBILITY





USA.gov is the U.S. government's official web portal to all federal, state and local government web resources and services.